[[{"header":{"parameterUnit":"m.s-1","parameterCategory":1,"la1":30.2991,"la2":30.254,"lo1":-89.0895,"lo2":-89.0444,"dy":0.0017,"dx":0.0017,"nx":28,"ny":28,"refTime":"2023-08-24T03:00:00:Z","depth":0,"parameterNumber":2,"parameterNumberName":"U-component_of_WINDS"},"data":[0,0,0,0,0,0,0,0,0,0,0,0,0,0,0,0,0,0,0,0,0,0,0,0,0,0,0,0,0,0,0,0,0,0,0,0,0,0,0,0,0,0,0,0,0,0,0,0,0,0,0,0,0,0,0,0,0,0,-2.1518,-2.1518,0,-2.154,-2.154,-2.154,-2.1506,-2.1505,-2.1504,-2.1503,-2.1525,-2.1527,-2.1528,0,0,0,0,0,0,0,0,0,0,0,0,0,-2.1447,-2.1448,-2.1518,-2.1518,-2.1518,-2.154,-2.154,-2.154,-2.1506,-2.1505,-2.1503,-2.1502,-2.1525,-2.1527,-2.1529,0,0,0,0,0,0,0,0,0,0,0,0,0,-2.1474,-2.1449,-2.1518,-2.1504,-2.1503,-2.1539,-2.154,-2.154,-2.1507,-2.1505,-2.1503,-2.1501,-2.1524,-2.1526,-2.1529,-2.158,0,0,-2.1537,-2.1538,0,0,0,0,0,0,0,0,-2.1473,-2.1477,-2.1506,-2.1505,-2.1504,-2.1518,-2.1523,-2.1554,-2.1507,-2.1505,-2.1503,-2.1501,-2.1524,-2.1527,-2.1535,-2.1581,-2.1582,-2.1537,-2.1538,-2.154,-2.154,0,0,0,0,0,0,0,-2.1471,-2.1476,-2.1526,-2.1506,-2.1505,-2.1497,-2.1499,-2.1529,-2.1524,-2.1505,-2.1503,-2.1506,-2.1523,-2.1532,-2.1535,-2.1582,-2.1537,-2.1539,-2.1541,-2.1542,-2.1671,-2.1673,0,0,0,0,0,0,-2.147,-2.1474,-2.1526,-2.1527,-2.1484,-2.1499,-2.1502,-2.1515,-2.1524,-2.1524,-2.1507,-2.1504,-2.1529,-2.1532,-2.1536,-2.1595,-2.154,-2.1542,-2.1543,-2.1669,-2.1672,-2.1674,0,0,0,0,0,0,-2.1469,-2.1475,-2.1525,-2.15,-2.1506,-2.1503,-2.1518,-2.1517,-2.1526,-2.1526,-2.1525,-2.1517,-2.1528,-2.1532,-2.1569,-2.1596,-2.1543,-2.1545,-2.1667,-2.167,-2.1673,-2.1715,0,0,0,0,0,0,-2.1467,-2.1475,-2.1494,-2.1501,-2.1507,-2.1558,-2.152,-2.1519,-2.153,-2.1526,-2.1535,-2.1534,-2.1527,-2.1566,-2.1572,-2.1598,-2.1547,-2.1665,-2.1668,-2.1672,-2.1712,-2.1719,-2.1726,0,0,0,0,0,-2.1465,-2.1506,-2.1495,-2.1502,-2.1531,-2.1559,-2.1563,-2.1553,-2.1532,-2.1552,-2.1552,-2.1534,-2.1592,-2.157,-2.1576,-2.1604,-2.1663,-2.1667,-2.1672,-2.1708,-2.1718,-2.1726,0,0,0,0,0,0,-2.1502,-2.1506,-2.1495,-2.1539,-2.1549,-2.1554,-2.1577,-2.1564,-2.158,-2.1576,-2.1563,-2.1565,-2.1605,-2.1608,-2.1583,-2.1654,-2.1624,-2.163,-2.165,-2.1659,-2.1666,-2.1664,-2.1549,0,0,0,0,0,-2.1516,-2.1538,-2.1541,-2.1579,-2.1585,-2.1581,-2.1593,-2.1584,-2.1594,-2.1598,-2.1601,-2.1612,-2.1632,-2.1646,-2.1665,-2.1713,-2.1714,-2.1735,-2.1742,-2.1748,-2.1753,-2.1778,-2.1787,-2.1688,-2.1688,-2.1688,0,0,-2.1543,-2.1548,-2.1563,-2.1587,-2.1594,-2.1617,-2.1584,-2.1611,-2.1628,-2.1602,-2.1637,-2.164,-2.1651,-2.1693,-2.1712,-2.1697,-2.1781,-2.1754,-2.1758,-2.176,-2.1783,-2.1793,-2.1801,-2.1691,-2.169,-2.169,0,0,-2.1606,-2.1612,-2.1645,-2.1653,-2.1663,-2.166,-2.1668,-2.1675,-2.1676,-2.1711,-2.1692,-2.1713,-2.1749,-2.1757,-2.1766,-2.1832,-2.1816,-2.1839,-2.1876,-2.1901,-2.1909,-2.1915,-2.1938,-2.1947,-2.1844,-2.1844,-2.1844,0,-2.1639,-2.1674,-2.1663,-2.1691,-2.1702,-2.168,-2.1713,-2.1721,-2.1738,-2.1745,-2.1729,-2.1773,-2.1779,-2.1823,-2.1839,-2.1848,-2.1856,-2.1837,-2.1908,-2.1915,-2.1921,-2.1943,-2.1952,-2.1847,-2.1847,-2.1846,-2.1846,0,-2.1713,-2.1738,-2.1763,-2.1779,-2.1793,-2.1823,-2.1818,-2.1833,-2.1824,-2.1823,-2.1859,-2.1865,-2.1885,-2.1895,-2.1886,-2.1938,-2.1928,-2.191,-2.188,-2.1933,-2.1953,-2.1962,-2.1851,-2.185,-2.1849,-2.1848,0,0,-2.1799,-2.181,-2.1819,-2.1826,-2.1837,-2.1855,-2.1885,-2.1904,-2.1917,-2.193,-2.1954,-2.1985,-2.1969,-2.1979,-2.1971,-2.1993,-2.2045,-2.1973,-2.1973,-2.1985,-2.2101,-2.2113,-2.2123,-2.2035,-2.2036,-2.2038,-2.2099,0,-2.186,-2.191,-2.1902,-2.1951,-2.1973,-2.1953,-2.1979,-2.1988,-2.1988,-2.2007,-2.2007,-2.2029,-2.2007,-2.2013,-2.2033,-2.2034,-2.2067,-2.203,-2.2056,-2.2057,-2.2053,-2.2133,-2.2146,-2.2204,-2.2107,-2.2108,-2.2109,0,-2.1938,-2.1953,-2.2004,-2.2011,-2.202,-2.2043,-2.206,-2.2079,-2.209,-2.2088,-2.21,-2.2089,-2.2118,-2.2089,-2.2129,-2.2103,-2.2114,-2.2116,-2.2118,-2.2119,-2.2086,-2.2135,-2.2222,-2.2231,-2.2122,-2.2121,-2.212,0,-2.1994,-2.2027,-2.2062,-2.2069,-2.2078,-2.2095,-2.21,-2.2109,-2.2121,-2.2136,-2.2143,-2.2162,-2.2172,-2.2187,-2.2181,-2.216,-2.2222,-2.2192,-2.2221,-2.2221,-2.2234,-2.2233,-2.2322,-2.2243,-2.2243,-2.2243,-2.2243,0,-2.2063,-2.2094,-2.2087,-2.2108,-2.2143,-2.2134,-2.2169,-2.2171,-2.2179,-2.22,-2.2185,-2.2205,-2.2197,-2.2217,-2.2213,-2.2246,-2.2251,-2.225,-2.2248,-2.2251,-2.2251,-2.2257,-2.2252,-2.2245,-2.2244,-2.2244,-2.2244,0,-2.213,-2.2127,-2.2163,-2.2169,-2.2172,-2.2197,-2.2202,-2.2222,-2.2221,-2.2248,-2.2254,-2.2253,-2.2276,-2.2271,-2.2297,-2.2294,-2.2335,-2.2329,-2.2331,-2.233,-2.2358,-2.2355,-2.2454,-2.2466,-2.238,-2.2381,-2.2382,0,-2.2174,-2.2197,-2.2206,-2.2219,-2.2225,-2.2246,-2.2259,-2.2251,-2.2264,-2.2278,-2.2296,-2.2318,-2.2334,-2.2371,-2.2373,-2.2392,-2.2385,-2.2419,-2.2388,-2.239,-2.2384,-2.2383,-2.2385,-2.2424,-2.2425,-2.2426,-2.2427,0,-2.2251,-2.2248,-2.2266,-2.2284,-2.2299,-2.2312,-2.2324,-2.2336,-2.2329,-2.2345,-2.2368,-2.2381,-2.2407,-2.2428,-2.2446,-2.2451,-2.2438,-2.2437,-2.2444,-2.2446,-2.2446,-2.2445,-2.2347,-2.2434,-2.2433,-2.2433,-2.2432,-2.2432,-2.2307,-2.2327,-2.2336,-2.2356,-2.2365,-2.2377,-2.2395,-2.2397,-2.2416,-2.2436,-2.243,-2.2456,-2.2466,-2.2489,-2.2496,-2.2516,-2.2504,-2.2515,-2.2517,-2.252,-2.2523,-2.2444,-2.252,-2.2519,-2.2519,-2.2519,-2.2519,0,-2.2382,-2.2387,-2.2406,-2.2423,-2.244,-2.2426,-2.2439,-2.2454,-2.2476,-2.2487,-2.2503,-2.253,-2.255,-2.2554,-2.2573,-2.2589,-2.2583,-2.2594,-2.2592,-2.2593,-2.2533,-2.2524,-2.2598,-2.2598,-2.2598,-2.2598,-2.2598,-2.2598,-2.2423,-2.2456,-2.2454,-2.2491,-2.2496,-2.2521,-2.2529,-2.254,-2.2548,-2.2578,-2.2595,-2.2597,-2.2605,-2.2625,-2.2643,-2.2643,-2.2651,-2.2664,-2.2662,-2.2606,-2.2598,-2.259,-2.2581,-2.2666,-2.2666,-2.272,-2.272,-2.2721]},{"header":{"parameterUnit":"m.s-1","parameterCategory":1,"la1":30.2991,"la2":30.254,"lo1":-89.0895,"lo2":-89.0444,"dy":0.0017,"dx":0.0017,"nx":28,"ny":28,"refTime":"2023-08-24T03:00:00:Z","depth":0,"parameterNumber":3,"parameterNumberName":"V-component_of_WINDS"},"data":[0,0,0,0,0,0,0,0,0,0,0,0,0,0,0,0,0,0,0,0,0,0,0,0,0,0,0,0,0,0,0,0,0,0,0,0,0,0,0,0,0,0,0,0,0,0,0,0,0,0,0,0,0,0,0,0,0,0,2.4803,2.4803,0,2.4797,2.4797,2.4797,2.477,2.4769,2.4769,2.4768,2.4761,2.4762,2.4762,0,0,0,0,0,0,0,0,0,0,0,0,0,2.479,2.479,2.4803,2.4803,2.4803,2.4797,2.4797,2.4797,2.477,2.4769,2.4768,2.4768,2.4761,2.4762,2.4762,0,0,0,0,0,0,0,0,0,0,0,0,0,2.4791,2.479,2.4803,2.4788,2.4787,2.4797,2.4797,2.4797,2.477,2.4769,2.4768,2.4767,2.4761,2.4762,2.4762,2.4785,0,0,2.4764,2.4764,0,0,0,0,0,0,0,0,2.4791,2.4791,2.4791,2.4789,2.4788,2.4783,2.479,2.4793,2.477,2.4777,2.4768,2.4767,2.4769,2.4769,2.477,2.4785,2.4785,2.4764,2.4765,2.4765,2.4765,0,0,0,0,0,0,0,2.4791,2.4791,2.48,2.4791,2.4789,2.4782,2.4781,2.479,2.4778,2.4776,2.4774,2.4774,2.4768,2.477,2.477,2.4785,2.4764,2.4765,2.4765,2.4765,2.4819,2.482,0,0,0,0,0,0,2.4793,2.4792,2.4801,2.48,2.4787,2.4783,2.4782,2.4786,2.4778,2.4776,2.4775,2.4773,2.4769,2.4769,2.477,2.4796,2.4765,2.4765,2.4766,2.4818,2.4819,2.482,0,0,0,0,0,0,2.4793,2.4794,2.4801,2.4795,2.4796,2.4785,2.4789,2.4786,2.4787,2.4777,2.4775,2.4778,2.4768,2.4769,2.4782,2.4795,2.4766,2.4766,2.4816,2.4818,2.482,2.4849,0,0,0,0,0,0,2.4792,2.4794,2.4802,2.4796,2.4796,2.4813,2.4789,2.4787,2.4789,2.4786,2.478,2.4778,2.4768,2.4781,2.4782,2.4796,2.4767,2.4815,2.4817,2.4819,2.4847,2.4852,2.4856,0,0,0,0,0,2.4792,2.4811,2.4803,2.4804,2.4807,2.4814,2.4814,2.4802,2.479,2.4798,2.4792,2.4778,2.4794,2.4783,2.4784,2.4798,2.4814,2.4817,2.4819,2.4845,2.4851,2.4856,0,0,0,0,0,0,2.4818,2.4809,2.4801,2.4818,2.4817,2.4809,2.4819,2.4809,2.4811,2.4808,2.4793,2.4792,2.4807,2.4804,2.4791,2.482,2.4802,2.4805,2.4821,2.4827,2.4831,2.4831,2.4767,0,0,0,0,0,2.4826,2.4833,2.4825,2.4841,2.4841,2.4831,2.4833,2.4825,2.4823,2.4822,2.4817,2.4815,2.482,2.4823,2.4827,2.4847,2.4845,2.4857,2.4862,2.4865,2.4867,2.4878,2.4883,2.4828,2.4828,2.4828,0,0,2.4842,2.4838,2.4843,2.4846,2.4844,2.4852,2.483,2.4839,2.4844,2.4823,2.4835,2.4832,2.4829,2.4846,2.4853,2.4844,2.4883,2.4868,2.4871,2.4871,2.4881,2.4886,2.4891,2.4829,2.4829,2.4829,0,0,2.4875,2.4873,2.4886,2.4885,2.4883,2.4877,2.488,2.4875,2.4871,2.4884,2.4868,2.4875,2.4883,2.4882,2.4883,2.4917,2.4905,2.4919,2.4941,2.4952,2.4956,2.496,2.4972,2.4976,2.4922,2.4922,2.4922,0,2.4895,2.4906,2.4894,2.4904,2.4906,2.4888,2.4902,2.4901,2.4901,2.4902,2.4892,2.4903,2.49,2.4916,2.4925,2.4927,2.493,2.4919,2.4956,2.496,2.4963,2.4975,2.4979,2.4923,2.4923,2.4923,2.4923,0,2.493,2.4938,2.4949,2.495,2.4953,2.4964,2.4955,2.4959,2.4951,2.4945,2.4958,2.4955,2.4958,2.4961,2.4953,2.4977,2.4971,2.4959,2.494,2.4971,2.4981,2.4985,2.4926,2.4925,2.4925,2.4924,0,0,2.4977,2.4973,2.4977,2.4977,2.4975,2.498,2.4992,2.4996,2.5,2.5001,2.5009,2.5018,2.5007,2.5008,2.4999,2.5009,2.5037,2.4996,2.4995,2.5003,2.5063,2.5071,2.5076,2.5029,2.503,2.503,2.5063,0,2.5008,2.5027,2.5018,2.5038,2.5045,2.503,2.504,2.5039,2.5035,2.5041,2.5036,2.5042,2.5027,2.5028,2.5037,2.5031,2.5048,2.5029,2.5036,2.5037,2.5036,2.5082,2.509,2.5121,2.5067,2.5067,2.5068,0,2.5046,2.5049,2.507,2.5067,2.507,2.5079,2.5082,2.5088,2.5088,2.5084,2.5086,2.5076,2.5087,2.507,2.5084,2.5072,2.5074,2.5073,2.5074,2.5073,2.5053,2.5081,2.513,2.5135,2.5074,2.5074,2.5073,0,2.5077,2.5087,2.5101,2.5102,2.5099,2.5106,2.5105,2.5104,2.5107,2.511,2.5112,2.5116,2.5118,2.5122,2.5113,2.5101,2.5129,2.5111,2.5126,2.5126,2.5131,2.5131,2.518,2.5135,2.5135,2.5135,2.5135,0,2.5112,2.5125,2.5115,2.5124,2.5138,2.5128,2.5143,2.5141,2.514,2.5148,2.5135,2.5143,2.5131,2.5138,2.5131,2.5144,2.5145,2.5143,2.514,2.5143,2.5143,2.5144,2.5141,2.5136,2.5136,2.5135,2.5135,0,2.5149,2.5143,2.5157,2.5154,2.5154,2.5165,2.5162,2.517,2.5165,2.5175,2.5177,2.517,2.5177,2.5169,2.5176,2.5171,2.5189,2.5184,2.5189,2.5187,2.5202,2.5201,2.5253,2.526,2.5211,2.5211,2.5212,0,2.5171,2.5181,2.518,2.5184,2.5184,2.5192,2.5195,2.5187,2.5191,2.5192,2.52,2.5206,2.521,2.5222,2.5218,2.5223,2.5217,2.5235,2.5218,2.522,2.5217,2.5216,2.5217,2.5238,2.5239,2.524,2.524,0,2.521,2.5207,2.5213,2.5219,2.5223,2.5227,2.5229,2.5234,2.5225,2.523,2.5238,2.5241,2.5248,2.5255,2.5259,2.5258,2.5247,2.5246,2.5249,2.5252,2.5254,2.5252,2.5198,2.5244,2.5244,2.5243,2.5243,2.5243,2.524,2.5248,2.5249,2.5256,2.5258,2.5261,2.5268,2.5266,2.5272,2.5277,2.5272,2.5281,2.5281,2.5286,2.5286,2.5293,2.5285,2.5291,2.5292,2.5293,2.5295,2.5254,2.5294,2.5294,2.5294,2.5294,2.5293,0,2.5278,2.5278,2.5285,2.529,2.5296,2.5287,2.529,2.5295,2.5304,2.5305,2.5311,2.532,2.5326,2.5323,2.5328,2.5335,2.533,2.5336,2.5335,2.5335,2.5302,2.5298,2.534,2.534,2.534,2.534,2.534,2.534,2.5299,2.5313,2.531,2.5325,2.5325,2.5335,2.5337,2.534,2.5341,2.5352,2.5358,2.5356,2.5356,2.5361,2.5367,2.5366,2.5368,2.5376,2.5373,2.5342,2.5337,2.5333,2.5329,2.5377,2.5377,2.5406,2.5406,2.5406]}]]